Dewpoint
1 1 1 1 2 1 1 -0 -3 -0 0 -1 -2 -1 1 1 5 5 6 6 5 3 12 12 14 12 12 10 9 9 9 6 2 11 9 10 10 10 9 8 4 4 3 -0 -0 2 6 9 11
2 1 2 1 2 3 0 -1 -2 -1 -1 -2 -1 0 0 2 5 8 8 5 4 5 14 14 14 14 13 10 10 9 9 4 2 11 9 8 9 9 7 5 6 3 -0 -1 -1 -1 -3 -1 3
2 2 2 1 2 2 1 -1 -3 -1 -1 -2 0 2 2 3 9 9 6 3 4 10 12 14 15 15 13 10 10 10 7 3 2 7 10 9 9 7 8 10 9 7 1 1 0 0 1 1 0
5 3 2 2 2 0 0 -2 -1 -1 -1 -1 -1 0 3 3 9 9 6 5 4 12 13 10 8 14 13 10 10 9 6 2 2 9 10 10 10 11 10 10 9 7 2 2 2 2 1 2 2
5 3 2 3 1 -1 -1 -1 -0 -1 -1 -1 -1 0 1 5 5 6 8 5 5 10 14 9 10 14 14 11 10 8 4 2 2 10 10 10 10 11 10 10 10 9 4 3 3 3 4 4 4
3 2 2 2 1 -0 0 -1 -1 -1 -1 -1 -1 -2 0 3 5 5 6 4 6 5 14 12 12 15 13 13 9 7 4 -1 -0 9 10 10 10 10 11 11 10 9 5 2 4 6 8 8 8
2 2 1 1 0 0 0 -1 -1 -2 -2 -2 -1 -1 1 3 7 5 5 4 5 10 12 12 12 14 13 13 10 7 4 -0 1 6 10 10 10 10 11 11 9 8 3 3 7 8 10 9 9
5 3 2 2 1 1 -1 0 -1 -1 -1 -2 -0 -1 -0 4 3 3 6 5 7 8 11 14 14 13 14 13 12 9 6 2 -0 2 5 7 9 9 9 9 8 5 2 6 8 9 10 10 10
7 4 3 3 3 0 1 1 1 0 -0 0 0 1 1 1 2 6 7 8 10 9 9 12 14 14 14 14 13 10 7 7 3 1 0 1 3 6 7 7 5 2 5 7 9 9 10 9 9
5 5 2 0 1 1 0 1 1 2 1 1 1 1 1 1 3 10 11 11 12 11 9 8 13 14 14 13 13 11 9 10 9 6 2 0 -1 2 5 4 2 4 8 9 10 10 9 8 8
4 5 1 4 4 3 2 3 3 2 2 1 1 1 2 3 4 7 8 9 11 12 13 9 10 12 14 14 14 13 12 12 12 7 5 -1 -3 1 3 5 7 10 9 10 10 10 9 9 6
5 4 4 3 5 6 5 5 5 3 1 1 3 3 4 4 4 3 7 8 10 12 12 8 9 10 12 14 13 13 13 12 12 10 7 2 0 1 4 11 10 11 10 10 10 9 9 6 -4
5 3 4 4 6 5 4 4 4 4 3 4 4 5 5 5 4 3 3 6 9 9 6 5 6 6 10 12 14 13 13 12 12 11 8 7 7 9 10 9 9 10 9 9 9 8 1 -5 -5
4 5 5 4 4 4 4 3 3 3 3 3 3 3 4 4 4 3 3 3 5 7 5 5 4 4 6 10 12 13 13 13 12 12 8 9 11 11 10 10 10 9 9 9 5 -5 -5 -6 -8
5 5 3 2 2 3 4 4 3 2 1 1 2 2 1 2 3 4 3 3 2 3 6 5 3 3 4 9 12 13 13 12 12 12 11 11 10 10 10 10 9 9 9 -0 -5 -5 -6 -8 -12
4 4 5 2 3 2 2 3 -1 3 3 3 2 1 0 1 1 2 3 3 3 3 2 1 1 2 2 6 13 13 13 12 12 12 11 11 10 10 10 9 8 9 -2 -4 -4 -7 -11 -14 -14
3 3 4 3 1 2 3 4 1 1 3 2 1 2 2 2 1 1 2 2 3 3 2 1 1 2 5 13 14 13 13 13 12 12 11 10 10 10 10 9 9 -1 -4 -3 -7 -11 -14 -15 -15
2 4 2 2 1 3 3 3 1 1 1 1 1 2 2 3 3 2 1 2 2 3 2 1 1 2 4 12 14 13 13 13 12 12 10 11 10 10 9 9 1 -3 -2 -4 -6 -8 -10 -13 -15
2 3 3 2 2 3 2 1 0 -1 -1 -1 -0 0 0 1 3 3 4 4 4 3 2 2 2 2 5 10 10 12 13 12 12 12 11 11 10 9 9 2 -3 -1 -2 -2 -3 -4 -6 -9 -14
3 3 3 1 0 1 1 1 -1 -2 -2 -2 -2 -2 -1 -0 0 2 3 3 3 3 3 3 2 2 5 5 10 9 11 13 12 12 12 11 10 9 7 -4 -1 -0 -1 -1 -1 -2 -4 -7 -13
3 3 3 2 1 0 1 1 -3 -5 -6 -6 -5 -4 -4 -4 -2 -0 0 2 3 3 3 3 2 3 6 8 11 11 12 12 12 12 11 10 9 6 -3 -2 0 -0 -0 -0 -0 -1 -3 -8 -13
3 0 1 2 3 4 -1 2 -3 -5 -5 -5 -5 -4 -4 -3 -3 -2 -0 -0 1 2 2 3 3 4 7 10 10 10 10 12 12 12 11 10 5 -2 -3 -0 -0 -0 -0 -0 -0 -1 -3 -7 -14
2 0 1 1 3 2 2 5 -2 -3 -3 -4 -5 -6 -6 -5 -4 -2 -2 -1 1 -0 1 3 4 6 7 8 11 12 11 12 11 11 10 7 1 -3 -2 -0 -0 -0 -0 -0 -1 -2 -4 -8 -14
0 1 1 1 2 6 1 1 -0 -4 -5 -5 -6 -6 -6 -4 -2 -2 1 0 1 2 0 3 5 8 9 10 12 13 11 10 11 10 8 3 1 -2 -1 -1 -1 -1 -1 -1 -1 -2 -5 -10 -15
1 3 4 4 5 3 -4 -1 -1 -5 -5 -5 -6 -7 -5 -4 -3 -2 -0 2 3 3 1 4 6 7 9 12 13 12 12 11 10 8 6 6 -2 -2 -1 -1 -2 -2 -1 -2 -2 -3 -7 -12 -16
2 2 3 2 -1 -1 -4 2 -3 -7 -6 -5 -5 -4 -1 0 -0 -3 -1 2 4 4 2 4 6 7 10 12 13 13 12 11 9 8 7 2 -3 -2 -1 -1 -2 -2 -2 -2 -3 -5 -9 -14 -16
2 4 1 4 1 4 0 -2 -4 -5 -4 -6 -5 -1 -0 0 1 1 -0 2 5 5 2 4 7 8 11 11 12 12 11 9 8 8 4 -3 -3 -2 -2 -2 -3 -3 -3 -3 -4 -7 -12 -15 -15
2 0 4 5 4 3 -2 -1 -2 -7 -6 -5 -1 -1 -2 -1 -0 1 1 3 5 7 5 8 8 8 10 11 11 11 10 9 8 6 1 -3 -3 -3 -3 -4 -4 -3 -3 -4 -6 -10 -13 -15 -14
3 4 5 3 4 3 2 -3 -8 -7 -6 -7 -3 -2 -2 1 1 2 2 3 6 7 8 8 7 7 9 11 11 11 9 8 7 2 -3 -3 -4 -4 -4 -4 -4 -4 -4 -5 -9 -12 -15 -15 -15
-1 0 1 5 4 5 3 2 -7 -7 -4 0 -2 -3 -0 3 2 3 3 5 7 8 8 8 7 8 10 11 11 10 10 8 3 -3 -4 -4 -5 -5 -5 -4 -4 -4 -5 -8 -11 -14 -16 -16 -15
Wind_Speed
9 8 8 5 6 5 7 4 4 3 3 1 5 8 3 7 4 1 3 13 13 14 16 14 14 12 10 7 6 4 2 3 5 8 7 10 8 6 6 3 2 3 3 4 3 4 7 10 8
7 6 4 3 6 9 7 6 7 2 5 9 6 6 9 3 3 2 5 10 14 16 16 15 15 13 9 6 5 3 2 3 6 9 7 12 8 7 7 8 6 7 5 5 5 4 2 5 7
8 3 5 4 8 12 6 8 5 1 5 2 3 4 3 1 1 3 5 7 14 17 16 15 15 13 9 6 5 3 1 3 7 12 13 12 10 12 9 6 5 5 6 6 6 6 5 4 2
5 3 3 9 15 10 9 0 4 4 2 1 3 6 3 3 1 3 5 12 16 16 16 14 13 13 9 6 5 3 2 4 7 10 14 11 8 6 3 2 4 5 5 5 5 5 5 4 3
7 5 9 11 18 16 9 8 7 9 6 5 7 1 3 2 4 4 3 9 10 15 16 14 13 13 10 7 5 3 3 4 7 11 15 9 7 7 7 3 1 3 3 3 4 5 5 4 4
9 8 8 16 18 11 11 12 11 13 9 10 6 7 1 2 1 5 6 11 12 15 15 15 14 13 11 8 5 3 3 5 8 12 13 10 8 5 5 4 3 3 2 3 4 4 4 4 4
13 9 15 17 15 14 12 10 14 13 13 11 6 6 1 1 3 4 9 12 13 14 13 13 13 15 11 9 7 4 4 5 9 11 12 10 9 6 5 6 5 4 2 2 3 3 4 5 6
10 6 15 13 16 19 7 8 7 9 11 3 4 7 6 2 5 6 8 11 13 15 14 13 12 12 12 10 8 5 5 6 8 9 9 9 9 8 7 5 5 4 3 2 1 2 5 7 8
6 8 13 19 16 12 6 10 10 5 9 5 6 4 1 3 5 7 9 12 13 15 16 15 13 13 14 11 10 8 6 7 8 7 7 7 9 9 9 8 6 5 4 4 4 5 7 9 11
13 11 16 11 14 9 11 9 7 7 12 12 9 6 3 6 5 9 11 12 14 15 16 16 16 14 14 14 13 11 9 8 8 6 6 6 8 10 10 7 6 6 5 6 6 7 9 9 11
10 15 13 8 12 11 14 14 12 13 14 17 14 8 5 2 5 10 12 12 13 13 14 15 16 17 16 13 14 13 11 11 10 9 7 7 8 9 8 6 5 4 6 8 7 8 10 13 14
9 14 15 10 11 10 13 13 15 19 24 15 13 11 10 11 10 10 11 11 13 14 14 13 14 16 18 15 15 14 13 12 11 10 10 10 9 9 8 5 6 7 6 7 8 10 13 15 16
12 11 11 12 12 16 18 24 23 24 22 21 20 17 17 17 16 13 12 11 13 15 14 13 13 13 16 18 17 15 14 14 13 12 12 11 10 8 8 9 7 6 7 9 10 12 13 16 18
2 6 11 11 17 19 20 25 22 27 24 27 30 31 27 23 20 16 14 13 14 15 15 15 15 14 15 19 19 17 16 15 14 12 14 13 10 10 8 8 7 7 8 10 10 13 16 18 19
6 10 12 17 15 13 12 20 20 32 31 32 27 27 29 29 26 24 19 17 16 16 15 17 18 19 19 20 21 19 18 17 15 13 14 13 11 9 9 8 7 8 9 9 12 15 17 17 17
5 5 5 2 2 8 11 17 5 5 10 22 29 31 32 31 32 30 25 20 17 18 18 18 18 20 22 23 24 21 20 18 16 15 13 13 11 10 10 8 8 8 7 9 13 15 15 15 13
8 7 9 9 4 6 12 11 4 11 11 15 20 21 22 28 31 31 29 26 22 21 19 22 21 20 22 22 26 24 22 21 19 17 14 14 13 11 10 10 10 7 6 9 11 12 12 12 11
5 7 7 10 3 6 15 21 20 24 26 25 26 26 23 22 22 25 25 26 26 27 23 25 27 25 22 24 29 29 27 23 21 20 17 17 15 12 12 11 8 5 4 7 9 11 13 13 13
2 6 10 9 7 15 17 23 21 25 29 28 30 31 31 31 25 23 21 20 22 25 25 23 24 23 24 31 36 31 28 25 23 22 21 20 17 13 11 12 8 4 3 5 8 11 14 15 15
14 16 16 14 13 11 18 31 23 24 32 34 33 34 35 34 32 29 25 24 22 24 24 25 24 24 26 29 33 32 31 28 25 25 24 23 20 16 14 12 8 4 2 6 9 12 15 16 16
15 17 14 16 15 18 21 26 16 8 15 23 31 38 39 38 35 34 33 31 25 25 26 26 26 26 28 30 34 34 32 30 31 30 30 27 21 18 16 13 8 4 3 6 10 12 14 14 15
14 8 13 13 10 6 2 11 15 14 14 14 17 19 23 28 33 37 35 33 30 30 27 29 27 26 30 33 37 36 34 34 33 33 31 26 23 20 17 13 8 5 4 7 10 13 14 14 13
7 4 7 9 11 11 18 6 13 4 15 11 14 19 22 22 25 28 34 33 30 30 31 30 27 28 30 32 36 35 30 31 31 32 31 27 25 22 18 13 9 6 5 7 11 13 14 15 14
3 7 9 11 8 8 21 14 19 19 15 11 12 16 18 17 16 22 24 24 28 27 32 31 29 30 30 33 34 35 31 27 32 34 31 29 26 24 19 13 9 6 6 8 11 13 15 15 14
11 5 3 4 6 9 6 10 20 13 10 17 22 25 19 16 16 17 20 22 23 31 33 32 32 33 31 31 35 34 29 26 28 30 32 29 28 24 18 13 10 7 7 9 11 14 15 15 14
18 14 5 7 10 12 5 11 12 20 19 22 17 17 11 13 15 18 18 19 22 29 32 35 35 34 32 35 36 34 31 28 26 28 31 30 27 22 17 13 10 8 8 10 12 14 15 15 15
5 9 13 18 20 13 16 23 18 23 15 19 15 9 9 14 17 15 15 16 20 27 33 36 36 33 36 36 38 35 31 28 28 30 31 29 25 20 15 12 10 9 9 11 13 14 15 15 16
14 0 5 6 6 18 13 15 13 13 9 15 12 9 12 16 20 21 13 14 17 24 30 30 30 32 37 37 36 35 31 27 29 30 31 27 22 18 15 12 10 9 10 12 14 15 16 15 17
10 8 6 6 9 8 14 16 11 9 12 13 7 12 17 15 17 22 10 12 16 21 26 27 27 31 35 37 36 35 32 28 30 31 29 25 20 17 14 11 10 10 11 13 14 15 16 17 19
16 16 19 9 12 7 10 21 12 13 10 8 13 16 14 14 15 20 6 10 16 22 26 27 30 32 36 37 35 30 32 31 32 30 26 21 18 15 13 10 9 10 12 13 15 16 17 19 20
Wind_Direction
296 314 329 320 249 238 245 222 265 258 223 274 303 259 294 311 259 342 313 163 162 163 163 166 169 173 158 145 143 126 96 68 109 135 139 172 189 204 230 236 34 15 356 358 26 187 207 206 210
291 315 320 261 252 238 230 223 218 197 323 302 281 244 244 269 254 21 131 168 161 164 162 166 169 177 171 160 156 148 105 102 134 149 119 114 106 99 102 94 58 47 43 52 69 89 122 206 223
279 292 259 243 241 240 260 208 198 341 321 288 271 247 265 21 258 122 167 179 166 167 165 174 171 181 190 177 168 159 118 116 126 135 112 107 104 103 101 76 53 43 48 60 70 76 80 89 113
223 234 217 239 235 238 251 133 165 316 199 300 320 259 253 271 86 166 207 181 177 171 172 180 168 194 195 185 175 166 151 136 139 136 129 131 137 159 129 66 31 27 42 50 57 56 60 56 52
197 221 238 238 244 249 238 258 267 275 291 275 314 231 277 295 228 208 202 185 192 178 175 181 181 189 199 187 177 173 149 144 146 139 138 139 157 175 181 193 2 360 13 26 39 40 31 22 23
196 232 228 233 236 226 247 252 261 266 264 280 269 260 254 243 231 214 204 186 187 190 177 184 189 193 203 193 179 170 156 138 152 152 151 158 164 166 187 204 241 300 325 356 20 35 38 31 17
229 217 235 246 245 243 238 243 247 263 268 254 253 248 159 138 202 186 182 187 188 181 185 186 189 194 199 202 187 175 164 143 153 163 167 171 173 171 160 196 234 257 279 334 18 34 6 350 335
225 240 238 234 240 243 216 209 238 239 257 241 211 229 214 100 188 184 191 193 191 188 187 187 184 191 196 206 194 185 177 158 155 165 179 186 192 192 197 213 227 249 272 281 291 321 318 319 317
198 228 234 229 237 231 216 216 217 213 236 222 208 243 270 264 213 198 198 200 197 197 196 193 189 193 197 196 208 192 187 181 173 172 180 193 204 206 209 223 237 242 247 257 281 308 316 320 316
212 228 240 246 251 241 229 236 253 234 216 224 224 232 285 284 259 213 209 206 201 205 208 211 200 197 199 205 208 198 198 192 190 193 196 209 208 207 210 220 225 246 257 276 287 302 311 317 314
213 238 233 236 249 250 249 247 237 242 242 233 232 234 261 294 262 237 233 227 220 207 207 221 222 216 208 210 204 197 195 195 199 208 213 209 200 201 207 216 225 234 261 277 298 306 306 307 310
237 241 257 255 237 253 247 259 248 244 246 257 254 257 270 271 270 264 247 238 224 215 209 215 225 225 223 212 217 204 200 204 201 211 216 208 202 201 207 191 209 231 259 276 288 299 301 306 310
235 254 252 253 254 257 265 255 258 264 255 254 256 257 262 265 263 259 254 245 228 226 221 222 221 224 225 222 218 207 205 205 205 213 212 198 197 192 195 221 230 239 259 279 292 300 303 307 310
266 265 266 267 261 262 260 261 256 255 260 257 255 254 253 253 252 255 248 247 236 231 232 237 240 237 227 223 223 212 205 205 204 205 208 201 192 198 215 223 232 248 271 285 298 307 309 314 316
272 281 276 262 255 259 262 263 246 255 251 252 253 250 248 244 246 250 250 248 240 238 235 238 243 245 238 225 223 210 205 205 203 200 202 199 216 207 223 222 229 253 276 294 307 314 319 321 321
253 265 281 86 273 237 220 267 285 266 231 252 254 252 250 247 244 244 245 250 248 244 247 244 247 248 244 229 217 205 207 200 203 202 210 211 216 217 218 227 240 259 277 306 317 321 326 330 329
216 256 234 281 249 280 216 273 288 246 282 273 262 261 259 251 245 242 242 247 251 252 242 250 256 254 239 217 214 210 202 205 211 209 210 207 211 212 217 224 239 245 290 319 326 332 337 339 337
230 226 234 251 176 273 271 267 269 267 275 274 271 264 257 254 249 242 243 242 246 249 248 246 253 253 237 209 208 207 204 205 208 208 208 204 203 209 214 220 217 248 311 335 343 344 347 349 348
290 265 259 256 272 302 272 273 272 274 272 267 262 261 258 255 253 251 245 244 241 243 241 240 246 242 226 207 209 206 202 207 204 204 204 203 201 200 209 205 213 232 316 347 355 353 352 351 353
249 261 265 280 274 273 287 286 285 274 265 260 258 255 254 254 251 247 246 244 243 241 240 238 240 241 225 214 207 209 204 203 204 203 203 199 198 198 200 204 210 230 315 354 359 360 354 352 356
242 253 269 276 295 287 282 283 275 268 268 262 256 256 257 253 249 246 241 240 242 240 236 236 237 233 217 210 201 201 197 200 199 199 194 193 192 195 198 203 213 238 318 351 356 356 356 351 349
263 262 257 259 276 276 56 291 298 291 287 265 265 254 253 255 247 243 238 235 233 235 238 235 234 223 211 206 207 208 202 195 199 199 196 188 190 194 200 206 220 246 312 342 347 349 349 350 345
237 215 243 254 258 280 251 248 279 264 284 267 271 261 273 269 252 244 237 232 229 232 235 230 221 211 209 209 208 201 195 196 199 196 192 188 190 197 202 210 224 249 306 332 339 343 344 343 340
112 228 256 261 263 248 250 221 276 275 284 285 277 262 290 284 257 245 245 232 226 223 226 221 210 205 205 204 199 197 202 206 199 189 190 189 194 198 201 211 228 254 299 324 333 335 337 336 332
220 204 253 233 209 244 288 220 237 278 280 271 279 290 294 299 280 268 247 237 224 215 216 211 203 203 202 197 195 201 209 209 204 194 192 195 196 199 204 215 233 258 293 316 326 331 332 329 325
209 209 223 252 259 283 266 238 235 247 259 260 267 283 302 320 296 266 249 237 221 212 211 206 199 201 196 194 198 199 199 197 199 199 196 197 198 202 208 222 238 262 290 311 324 327 325 323 319
185 219 242 270 267 268 255 263 269 260 248 254 266 282 318 345 349 294 259 239 213 202 205 202 196 195 191 195 197 197 195 188 195 198 195 197 200 204 215 228 243 267 293 312 319 322 322 320 315
225 313 209 207 260 253 247 245 257 273 267 252 220 276 320 332 345 333 258 235 212 198 196 191 189 188 190 194 193 194 186 190 196 198 196 197 202 209 220 231 250 274 297 310 317 321 319 316 311
199 227 211 273 254 266 276 270 292 276 271 255 243 295 308 319 343 338 277 227 205 187 180 181 181 186 189 189 191 186 184 186 195 195 194 198 205 214 223 237 257 282 301 311 317 316 314 311 307
236 238 224 232 235 221 262 271 265 266 266 235 279 299 313 316 347 343 285 207 188 179 171 173 180 187 186 186 186 184 189 191 190 190 194 200 209 217 228 243 267 291 304 311 313 312 310 308 308
Height
1525 1525 1525 1526 1526 1517 1513 1512 1508 1508 1508 1508 1508 1508 1503 1503 1498 1503 1502 1503 1504 1506 1509 1511 1512 1513 1514 1515 1516 1516 1517 1518 1518 1519 1520 1521 1522 1523 1523 1524 1524 1523 1522 1521 1520 1520 1521 1521 1522
1523 1524 1525 1524 1522 1517 1506 1505 1509 1507 1509 1509 1507 1506 1506 1499 1503 1504 1504 1504 1505 1507 1509 1512 1512 1514 1515 1516 1516 1517 1517 1518 1518 1519 1521 1522 1523 1523 1524 1524 1524 1523 1523 1522 1521 1520 1520 1520 1521
1522 1524 1525 1518 1513 1513 1508 1505 1503 1508 1509 1508 1506 1506 1504 1502 1503 1504 1503 1505 1506 1507 1510 1511 1512 1514 1516 1517 1517 1518 1518 1518 1518 1519 1522 1523 1523 1524 1525 1525 1525 1525 1524 1523 1521 1521 1520 1521 1520
1522 1524 1524 1518 1510 1506 1507 1505 1507 1508 1507 1508 1506 1502 1503 1501 1503 1502 1503 1504 1505 1508 1510 1510 1511 1514 1516 1517 1518 1518 1518 1518 1519 1520 1521 1523 1524 1525 1526 1526 1526 1526 1525 1524 1523 1522 1521 1521 1521
1519 1520 1514 1513 1506 1502 1506 1507 1509 1508 1508 1506 1506 1499 1502 1501 1502 1503 1503 1505 1507 1508 1510 1510 1511 1514 1516 1517 1517 1518 1518 1518 1519 1520 1521 1522 1524 1525 1525 1526 1526 1527 1526 1524 1523 1522 1522 1523 1521
1517 1515 1512 1508 1502 1502 1506 1506 1508 1505 1505 1505 1505 1502 1501 1501 1501 1502 1502 1504 1507 1509 1510 1511 1512 1513 1515 1517 1517 1518 1518 1518 1520 1521 1522 1523 1523 1524 1525 1526 1527 1527 1526 1525 1524 1523 1523 1523 1522
1511 1509 1503 1502 1500 1499 1502 1505 1505 1503 1502 1503 1503 1500 1500 1501 1501 1502 1502 1504 1506 1508 1510 1511 1512 1514 1515 1517 1517 1518 1518 1519 1519 1521 1522 1523 1523 1524 1525 1526 1527 1526 1526 1525 1524 1524 1524 1523 1523
1512 1507 1502 1502 1500 1499 1500 1503 1503 1502 1500 1503 1503 1499 1498 1501 1501 1501 1502 1503 1505 1506 1508 1511 1512 1514 1515 1517 1517 1518 1518 1519 1520 1521 1522 1523 1524 1524 1525 1526 1526 1526 1525 1525 1525 1524 1524 1523 1522
1511 1505 1498 1498 1500 1496 1500 1499 1500 1501 1500 1501 1501 1500 1500 1499 1501 1501 1501 1503 1504 1505 1506 1508 1511 1514 1516 1516 1516 1518 1519 1519 1520 1521 1521 1522 1524 1524 1524 1525 1526 1526 1525 1524 1525 1524 1524 1523 1522
1506 1501 1492 1492 1496 1497 1497 1498 1498 1499 1497 1498 1499 1499 1498 1498 1499 1501 1501 1502 1502 1503 1504 1505 1508 1512 1514 1514 1515 1516 1517 1518 1520 1520 1521 1522 1522 1523 1524 1524 1524 1526 1525 1525 1524 1523 1523 1523 1521
1503 1496 1492 1497 1499 1499 1498 1498 1498 1496 1494 1495 1495 1496 1497 1498 1498 1499 1500 1501 1502 1502 1503 1503 1505 1508 1511 1512 1514 1515 1516 1517 1519 1519 1519 1520 1521 1522 1523 1524 1524 1525 1524 1524 1524 1523 1522 1521 1519
1502 1498 1498 1498 1499 1500 1498 1497 1495 1494 1491 1494 1495 1495 1494 1495 1496 1496 1497 1498 1499 1500 1500 1501 1502 1504 1507 1509 1510 1513 1514 1515 1516 1517 1517 1518 1519 1521 1522 1524 1523 1523 1523 1524 1523 1521 1520 1519 1517
1500 1496 1498 1498 1498 1498 1497 1493 1493 1491 1491 1493 1492 1492 1491 1491 1492 1493 1493 1494 1495 1496 1497 1498 1499 1500 1502 1504 1507 1508 1512 1512 1514 1514 1515 1516 1518 1519 1520 1521 1522 1522 1523 1523 1521 1520 1518 1516 1514
1499 1498 1496 1495 1495 1494 1493 1488 1491 1484 1487 1487 1487 1487 1487 1487 1488 1489 1489 1490 1491 1492 1493 1494 1496 1497 1498 1499 1501 1505 1508 1510 1511 1511 1512 1514 1516 1517 1518 1519 1520 1521 1521 1521 1519 1518 1517 1514 1511
1499 1496 1491 1489 1489 1490 1490 1482 1478 1477 1480 1480 1480 1480 1480 1481 1483 1483 1484 1486 1487 1489 1490 1491 1491 1492 1494 1496 1498 1501 1503 1505 1507 1509 1510 1511 1513 1515 1517 1518 1518 1519 1519 1518 1517 1516 1513 1511 1508
1496 1494 1489 1482 1486 1485 1487 1472 1471 1472 1470 1473 1473 1473 1474 1474 1475 1477 1479 1480 1481 1483 1484 1485 1487 1488 1489 1491 1494 1496 1498 1501 1504 1507 1508 1509 1511 1513 1515 1516 1518 1518 1517 1517 1515 1514 1511 1509 1506
1492 1485 1488 1485 1483 1482 1481 1469 1468 1470 1470 1468 1468 1468 1468 1467 1468 1470 1472 1474 1474 1476 1478 1479 1481 1482 1484 1488 1490 1492 1494 1496 1500 1503 1505 1506 1509 1511 1513 1515 1516 1516 1516 1515 1513 1512 1509 1507 1506
1480 1489 1486 1484 1480 1482 1476 1468 1468 1469 1469 1467 1465 1463 1462 1462 1462 1464 1466 1467 1467 1469 1471 1473 1475 1477 1478 1481 1485 1487 1489 1492 1496 1499 1502 1504 1507 1508 1510 1513 1514 1515 1514 1513 1511 1510 1508 1506 1504
1489 1487 1484 1481 1482 1482 1471 1461 1462 1463 1461 1460 1459 1457 1456 1455 1457 1458 1458 1459 1460 1463 1465 1466 1468 1470 1472 1474 1476 1481 1484 1488 1492 1496 1499 1502 1504 1505 1508 1511 1512 1513 1512 1511 1510 1508 1506 1504 1502
1489 1487 1482 1479 1480 1482 1470 1448 1454 1455 1447 1449 1449 1446 1446 1447 1449 1450 1451 1453 1453 1456 1458 1460 1462 1464 1466 1468 1473 1476 1480 1485 1489 1492 1495 1499 1501 1503 1505 1508 1510 1510 1510 1509 1508 1506 1504 1502 1501
1486 1484 1482 1483 1480 1479 1474 1445 1431 1429 1432 1435 1437 1437 1437 1436 1438 1440 1441 1444 1445 1447 1450 1453 1454 1456 1459 1463 1467 1470 1474 1480 1484 1487 1491 1494 1498 1501 1504 1506 1507 1508 1508 1507 1506 1505 1504 1502 1500
1483 1480 1482 1485 1486 1479 1474 1448 1429 1426 1426 1428 1429 1427 1427 1426 1427 1429 1430 1433 1436 1438 1442 1444 1447 1449 1452 1457 1461 1465 1467 1473 1479 1484 1487 1491 1496 1499 1501 1503 1505 1505 1505 1504 1503 1503 1502 1500 1499
1481 1482 1482 1481 1480 1480 1466 1482 1424 1425 1425 1423 1421 1420 1419 1419 1418 1419 1419 1422 1427 1430 1433 1436 1440 1443 1445 1451 1457 1463 1467 1471 1475 1480 1484 1488 1493 1497 1499 1501 1502 1503 1502 1501 1501 1500 1499 1498 1497
1481 1482 1482 1480 1482 1476 1446 1455 1431 1420 1414 1415 1416 1414 1413 1412 1410 1411 1413 1414 1417 1421 1424 1428 1433 1437 1441 1445 1453 1459 1463 1467 1471 1475 1481 1486 1490 1494 1496 1498 1500 1500 1499 1498 1498 1497 1496 1495 1493
1480 1483 1473 1476 1478 1451 1434 1437 1417 1417 1417 1416 1408 1408 1409 1407 1406 1405 1406 1407 1408 1409 1415 1421 1425 1430 1436 1442 1448 1454 1460 1465 1469 1473 1479 1483 1487 1491 1493 1495 1498 1497 1496 1495 1494 1494 1493 1492 1490
1473 1472 1462 1456 1439 1434 1431 1430 1402 1403 1409 1410 1409 1408 1406 1403 1399 1398 1398 1399 1400 1403 1409 1414 1419 1425 1431 1438 1444 1450 1456 1462 1467 1472 1476 1481 1485 1489 1491 1493 1495 1495 1494 1492 1491 1490 1489 1488 1486
1471 1473 1465 1462 1448 1453 1433 1413 1407 1398 1407 1405 1405 1405 1402 1398 1394 1392 1392 1392 1394 1395 1402 1410 1415 1420 1427 1432 1440 1446 1453 1458 1465 1470 1474 1479 1483 1486 1489 1491 1492 1492 1491 1489 1488 1487 1485 1483 1482
1464 1463 1468 1467 1453 1434 1410 1410 1400 1391 1394 1397 1399 1399 1397 1394 1391 1388 1386 1388 1390 1392 1397 1406 1413 1418 1423 1429 1437 1444 1450 1457 1463 1468 1472 1477 1481 1484 1486 1488 1489 1488 1487 1486 1485 1483 1481 1480 1477
1462 1463 1463 1456 1443 1432 1421 1395 1381 1389 1391 1391 1395 1396 1395 1392 1387 1384 1382 1385 1388 1389 1394 1403 1411 1415 1421 1429 1436 1442 1448 1455 1461 1466 1471 1475 1479 1481 1483 1485 1485 1485 1484 1483 1481 1479 1477 1475 1473
1441 1441 1445 1447 1435 1432 1425 1392 1387 1388 1392 1395 1394 1392 1392 1390 1383 1381 1380 1383 1386 1388 1392 1400 1406 1413 1419 1426 1434 1441 1447 1453 1459 1465 1469 1474 1476 1479 1481 1482 1482 1481 1481 1479 1477 1475 1473 1471 1468